EW2896 Weather Reports


Display with metric or nautical units.
time (UTC)temp
F
wind
direction
speed
MPH
gust
MPH
rain 1hr
in
rain 24hr
in
rain mn
in
humidity
%
barometer
mb
20260510174605 65 343 2.0 6.0 0.00 0.00 0.00 49 1018.6
20260510174104 65 14 1.0 5.0 0.00 0.00 0.00 49 1018.6
20260510173605 65 275 0.0 3.0 0.00 0.00 0.00 48 1018.6
20260510173105 65 245 1.0 3.0 0.00 0.00 0.00 51 1018.7
20260510172105 64 0 1.0 3.0 0.00 0.00 0.00 50 1018.7
20260510171605 64 276 1.0 5.0 0.00 0.00 0.00 51 1018.6
20260510170605 64 256 0.0 3.0 0.00 0.00 0.00 52 1018.6
20260510170105 64 243 1.0 3.0 0.00 0.00 0.00 50 1018.7
20260510165105 64 18 1.0 2.0 0.00 0.00 0.00 50 1018.8
20260510164605 64 246 1.0 3.0 0.00 0.00 0.00 48 1018.8
20260510164105 64 246 1.0 2.0 0.00 0.00 0.00 49 1018.7
20260510163604 64 24 0.0 1.0 0.00 0.00 0.00 49 1018.7
20260510163105 64 27 1.0 3.0 0.00 0.00 0.00 49 1018.7
20260510162604 64 26 0.0 3.0 0.00 0.00 0.00 56 1018.7
20260510161105 63 138 0.0 1.0 0.00 0.00 0.00 54 1018.5
20260510160604 63 247 1.0 3.0 0.00 0.00 0.00 53 1018.5
20260510160105 62 100 1.0 3.0 0.00 0.00 0.00 55 1018.4
20260510155605 62 267 0.0 2.0 0.00 0.00 0.00 55 1018.5
20260510155105 62 269 0.0 3.0 0.00 0.00 0.00 59 1018.5
20260510154605 62 105 0.0 2.0 0.00 0.00 0.00 60 1018.4
20260510154104 61 107 1.0 2.0 0.00 0.00 0.00 58 1018.3
20260510153605 61 114 0.0 0.0 0.00 0.00 0.00 59 1018.2
20260510153105 61 119 0.0 0.0 0.00 0.00 0.00 60 1018.2
20260510152105 61 104 0.0 1.0 0.00 0.00 0.00 60 1018.1
20260510151606 60 108 0.0 1.0 0.00 0.00 0.00 61 1018.0
20260510151106 60 97 0.0 0.0 0.00 0.00 0.00 61 1018.0
20260510150605 60 355 0.0 1.0 0.00 0.00 0.00 63 1018.0
20260510150105 59 330 0.0 1.0 0.00 0.00 0.00 60 1018.0
20260510145604 59 242 0.0 1.0 0.00 0.00 0.00 62 1018.0
20260510145105 59 242 0.0 2.0 0.00 0.00 0.00 62 1017.8
20260510144605 59 26 0.0 1.0 0.00 0.00 0.00 63 1017.8
20260510143605 59 71 0.0 0.0 0.00 0.00 0.00 65 1017.6
20260510143105 58 71 0.0 2.0 0.00 0.00 0.00 67 1017.6
20260510142604 58 0 0.0 1.0 0.00 0.00 0.00 67 1017.6
20260510142105 57 20 0.0 1.0 0.00 0.00 0.00 68 1017.6
20260510141606 57 340 1.0 3.0 0.00 0.00 0.00 67 1017.6
20260510140605 56 330 0.0 0.0 0.00 0.00 0.00 69 1017.6
20260510140105 56 333 0.0 0.0 0.00 0.00 0.00 69 1017.5
20260510135605 56 333 0.0 0.0 0.00 0.00 0.00 69 1017.4
20260510134605 55 313 0.0 2.0 0.00 0.00 0.00 70 1017.3
20260510134105 55 298 1.0 3.0 0.00 0.00 0.00 69 1017.3
20260510133605 55 3 0.0 2.0 0.00 0.00 0.00 70 1017.4
20260510132604 55 0 0.0 1.0 0.00 0.00 0.00 71 1017.3
20260510132105 54 5 0.0 2.0 0.00 0.00 0.00 70 1017.2
20260510131605 54 318 0.0 1.0 0.00 0.00 0.00 71 1017.1
20260510131105 54 315 0.0 1.0 0.00 0.00 0.00 71 1017.0
20260510130105 54 290 1.0 3.0 0.00 0.00 0.00 72 1016.7
20260510125605 54 290 0.0 1.0 0.00 0.01 0.00 72 1016.6
20260510125105 54 287 1.0 3.0 0.00 0.01 0.00 72 1016.7
20260510124605 54 22 0.0 1.0 0.00 0.01 0.00 72 1016.8
20260510124105 54 15 0.0 1.0 0.00 0.01 0.00 72 1016.7
20260510123604 54 326 0.0 1.0 0.00 0.01 0.00 72 1016.5
20260510123104 54 315 0.0 0.0 0.00 0.01 0.00 73 1016.4
20260510122105 54 315 0.0 1.0 0.00 0.01 0.00 71 1016.5
20260510121604 54 314 0.0 0.0 0.00 0.01 0.00 72 1016.5
20260510121105 54 294 0.0 0.0 0.00 0.01 0.00 73 1016.5
20260510120604 54 294 0.0 1.0 0.00 0.01 0.00 72 1016.3
20260510120105 54 257 0.0 0.0 0.00 0.01 0.00 72 1016.2
20260510115605 54 257 0.0 1.0 0.00 0.01 0.00 72 1016.1
20260510115105 54 257 0.0 3.0 0.00 0.01 0.00 72 1016.2
20260510114605 54 290 0.0 0.0 0.00 0.01 0.00 74 1016.1
20260510114104 54 290 0.0 0.0 0.00 0.01 0.00 74 1015.8
20260510113605 54 290 0.0 1.0 0.00 0.01 0.00 72 1015.7
20260510113105 54 290 0.0 0.0 0.00 0.01 0.00 73 1015.7
20260510112605 54 290 0.0 1.0 0.00 0.01 0.00 73 1015.4
20260510112105 54 290 0.0 1.0 0.00 0.01 0.00 74 1015.4
20260510111605 54 289 0.0 2.0 0.00 0.01 0.00 74 1015.3
20260510111105 54 268 1.0 3.0 0.00 0.01 0.00 74 1015.4
20260510110605 55 73 0.0 1.0 0.00 0.01 0.00 76 1015.2
20260510110105 55 73 0.0 1.0 0.00 0.01 0.00 77 1015.1
20260510105604 55 73 0.0 2.0 0.00 0.01 0.00 76 1014.9
20260510105105 55 58 1.0 3.0 0.00 0.02 0.00 77 1014.9
20260510104604 55 51 0.0 2.0 0.00 0.02 0.00 79 1014.9
20260510104104 55 345 0.0 3.0 0.00 0.02 0.00 80 1014.8
20260510103604 55 18 0.0 3.0 0.00 0.03 0.00 81 1014.5
20260510103105 55 15 0.0 3.0 0.00 0.03 0.00 81 1014.4
20260510102604 56 336 0.0 1.0 0.00 0.04 0.00 82 1014.3
20260510102104 56 336 0.0 0.0 0.00 0.04 0.00 81 1014.2
20260510101605 56 336 0.0 2.0 0.00 0.04 0.00 81 1014.0
20260510101105 56 5 0.0 1.0 0.00 0.04 0.00 81 1014.0
20260510100606 56 25 0.0 0.0 0.00 0.04 0.00 81 1014.0
20260510100105 56 25 0.0 1.0 0.00 0.04 0.00 81 1013.9
20260510095105 56 25 0.0 3.0 0.00 0.04 0.00 81 1013.5
20260510094605 56 290 1.0 2.0 0.00 0.04 0.00 81 1013.5
20260510094104 56 246 0.0 2.0 0.00 0.04 0.00 81 1013.6
20260510093605 56 246 0.0 2.0 0.00 0.04 0.00 81 1013.4
20260510093105 56 246 0.0 1.0 0.00 0.04 0.00 82 1013.2
20260510092605 56 246 1.0 3.0 0.00 0.04 0.00 82 1013.0
20260510092105 56 24 1.0 2.0 0.00 0.04 0.00 83 1012.9
20260510091605 56 24 0.0 0.0 0.00 0.04 0.00 83 1012.9
20260510091105 57 24 0.0 0.0 0.00 0.05 0.00 82 1012.9
20260510090605 57 24 0.0 0.0 0.00 0.05 0.00 82 1012.6
20260510085605 57 24 0.0 0.0 0.00 0.05 0.00 82 1012.2
20260510085105 57 24 0.0 0.0 0.00 0.05 0.00 82 1012.0
20260510084605 57 24 0.0 0.0 0.00 0.06 0.00 81 1012.1
20260510084104 57 24 0.0 0.0 0.00 0.06 0.00 81 1012.0
20260510083605 57 24 0.0 0.0 0.00 0.06 0.00 80 1011.9
20260510082105 58 24 0.0 0.0 0.00 0.07 0.00 79 1011.8
20260510081605 58 24 0.0 0.0 0.00 0.08 0.00 79 1011.8
20260510081105 59 24 0.0 0.0 0.00 0.08 0.00 79 1011.7
20260510080605 59 24 0.0 0.0 0.00 0.08 0.00 79 1011.8
20260510080104 59 24 0.0 0.0 0.00 0.09 0.00 79 1011.9
20260510075605 59 24 0.0 0.0 0.00 0.09 0.00 78 1011.7
20260510075105 59 24 0.0 0.0 0.00 0.09 0.00 78 1011.8
20260510074105 60 24 0.0 0.0 0.00 0.10 0.00 77 1011.5
20260510073605 60 24 0.0 0.0 0.00 0.10 0.00 76 1011.6
20260510073105 60 24 0.0 0.0 0.00 0.11 0.00 76 1011.7
20260510072105 61 24 0.0 0.0 0.00 0.11 0.00 75 1011.5
20260510071605 61 24 0.0 0.0 0.00 0.11 0.00 74 1011.5
20260510071105 62 24 0.0 0.0 0.00 0.11 0.00 74 1011.5
20260510070605 62 24 0.0 0.0 0.00 0.11 0.00 74 1011.5
20260510070105 62 24 0.0 0.0 0.00 0.11 0.00 73 1011.5
20260510065605 62 24 0.0 2.0 0.00 0.11 0.00 73 1011.5
20260510065105 62 32 0.0 3.0 0.00 0.12 0.00 73 1011.5
20260510064605 62 218 1.0 3.0 0.00 0.12 0.00 73 1011.5
20260510064104 63 216 0.0 1.0 0.00 0.12 0.00 75 1011.7
20260510063605 63 215 1.0 5.0 0.00 0.12 0.00 74 1011.7
20260510063105 62 25 0.0 5.0 0.00 0.12 0.00 75 1011.7
20260510062605 62 15 1.0 3.0 0.00 0.12 0.00 76 1011.9
20260510062105 62 52 1.0 5.0 0.00 0.12 0.00 77 1011.8
20260510061605 62 69 0.0 2.0 0.00 0.12 0.00 77 1011.8
20260510061105 62 59 1.0 3.0 0.00 0.12 0.00 77 1011.8
20260510060605 61 33 0.0 3.0 0.00 0.12 0.00 78 1011.8
20260510060105 61 27 1.0 3.0 0.00 0.12 0.00 79 1011.8
20260510055605 61 16 1.0 3.0 0.00 0.12 0.00 79 1011.8
20260510055105 60 212 0.0 1.0 0.00 0.12 0.00 80 1011.6
20260510054105 60 210 0.0 1.0 0.00 0.12 0.00 80 1011.5
20260510053605 60 210 0.0 0.0 0.00 0.12 0.00 80 1011.6
20260510053105 60 210 0.0 0.0 0.00 0.12 0.00 80 1011.6
20260510052605 60 210 0.0 0.0 0.00 0.12 0.00 80 1011.5
20260510052105 60 210 0.0 0.0 0.00 0.12 0.00 79 1011.5
20260510051605 60 210 0.0 0.0 0.00 0.12 0.00 79 1011.6
20260510051105 60 211 0.0 0.0 0.00 0.12 0.00 79 1011.5
20260510050104 60 211 0.0 0.0 0.00 0.12 0.00 78 1011.4
20260510045605 60 211 0.0 0.0 0.00 0.12 0.00 78 1011.3
20260510045105 60 211 0.0 0.0 0.00 0.12 0.00 79 1011.2
20260510044605 60 211 0.0 2.0 0.00 0.12 0.00 79 1011.3
20260510043105 59 211 0.0 0.0 0.00 0.12 0.00 79 1011.3
20260510042104 59 211 0.0 0.0 0.00 0.12 0.00 79 1011.2
20260510041104 59 211 0.0 0.0 0.00 0.12 0.00 79 1011.1
20260510040604 60 211 0.0 0.0 0.00 0.12 0.00 79 1011.2
20260510040105 60 211 0.0 0.0 0.00 0.12 0.00 78 1011.2
20260510035605 60 211 0.0 0.0 0.00 0.12 0.12 78 1011.0
20260510035105 60 211 0.0 0.0 0.00 0.12 0.12 77 1011.0
20260510034604 60 211 0.0 0.0 0.00 0.12 0.12 78 1010.9
20260510034105 60 211 0.0 0.0 0.00 0.12 0.12 78 1010.9
20260510033605 60 211 0.0 0.0 0.00 0.12 0.12 78 1010.8
20260510033105 60 211 0.0 0.0 0.00 0.12 0.12 78 1010.9
20260510032605 60 211 0.0 0.0 0.00 0.12 0.12 77 1010.8
20260510031604 60 211 0.0 0.0 0.00 0.12 0.12 77 1010.8
20260510031105 61 211 0.0 0.0 0.00 0.12 0.12 77 1010.6
20260510030105 61 211 0.0 0.0 0.00 0.12 0.12 76 1010.6
20260510025605 61 211 0.0 0.0 0.00 0.12 0.12 75 1010.6
20260510025104 61 211 0.0 0.0 0.00 0.12 0.12 75 1010.6
20260510024604 61 211 0.0 0.0 0.00 0.12 0.12 75 1010.6
20260510024105 62 211 0.0 0.0 0.00 0.12 0.12 74 1010.6
20260510023605 62 211 0.0 0.0 0.00 0.12 0.12 74 1010.5
20260510023105 62 211 0.0 0.0 0.00 0.12 0.12 73 1010.5
20260510022605 62 211 0.0 0.0 0.00 0.12 0.12 73 1010.4
20260510022106 63 211 0.0 0.0 0.00 0.12 0.12 72 1010.3
20260510021605 63 211 0.0 0.0 0.00 0.12 0.12 72 1010.3
20260510021105 63 211 0.0 0.0 0.00 0.12 0.12 71 1010.2
20260510020605 64 211 0.0 0.0 0.00 0.12 0.12 70 1010.1
20260510015605 64 211 0.0 0.0 0.00 0.12 0.12 70 1010.0
20260510015104 65 211 0.0 0.0 0.00 0.12 0.12 68 1010.0
20260510014604 65 211 0.0 0.0 0.00 0.12 0.12 68 1009.9
20260510013605 65 211 0.0 0.0 0.00 0.12 0.12 67 1009.7
20260510013105 66 211 0.0 0.0 0.00 0.12 0.12 66 1009.6
20260510012605 66 211 0.0 0.0 0.00 0.13 0.12 66 1009.5
20260510012105 66 211 0.0 0.0 0.00 0.13 0.12 65 1009.5
20260510011605 66 211 0.0 1.0 0.00 0.13 0.12 65 1009.5
20260510011105 67 211 0.0 3.0 0.00 0.13 0.12 64 1009.4
20260510010605 67 211 0.0 0.0 0.00 0.13 0.12 64 1009.4
20260510010105 67 211 0.0 1.0 0.00 0.13 0.12 64 1009.4
20260510005604 67 211 0.0 2.0 0.00 0.13 0.12 64 1009.4
20260510005105 67 211 0.0 1.0 0.00 0.13 0.12 64 1009.4
20260510004604 68 211 0.0 2.0 0.00 0.13 0.12 64 1009.3
20260510004105 68 211 0.0 0.0 0.00 0.13 0.12 63 1009.1
20260510003605 68 211 0.0 0.0 0.00 0.13 0.12 63 1009.1
20260510003105 68 211 0.0 2.0 0.00 0.13 0.12 62 1009.0
20260510001605 69 210 0.0 2.0 0.00 0.13 0.12 61 1008.8
20260510000605 69 210 1.0 3.0 0.00 0.13 0.12 60 1008.7
20260510000105 69 210 1.0 3.0 0.00 0.13 0.12 60 1008.7
20260509235604 69 211 1.0 5.0 0.00 0.13 0.12 60 1008.5
20260509234105 70 200 0.0 3.0 0.00 0.13 0.12 58 1008.6
20260509233605 70 189 2.0 6.0 0.00 0.13 0.12 58 1008.5
20260509233104 70 39 0.0 2.0 0.00 0.13 0.12 58 1008.5
20260509232604 70 38 1.0 6.0 0.00 0.13 0.12 58 1008.5
20260509231605 71 335 1.0 3.0 0.00 0.13 0.12 57 1008.4
20260509231105 71 134 1.0 7.0 0.00 0.13 0.12 56 1008.5
20260509230604 71 207 2.0 5.0 0.00 0.13 0.12 57 1008.4
20260509230105 71 92 1.0 5.0 0.00 0.13 0.12 58 1008.4
20260509225604 71 210 2.0 7.0 0.00 0.13 0.12 57 1008.3
20260509225105 71 200 2.0 7.0 0.00 0.13 0.12 57 1008.3
20260509224105 71 249 2.0 7.0 0.00 0.13 0.12 57 1008.2
20260509223604 71 192 0.0 3.0 0.00 0.13 0.12 57 1008.2
20260509223104 71 178 2.0 5.0 0.00 0.13 0.12 56 1008.2
20260509222604 71 266 1.0 5.0 0.00 0.13 0.12 57 1008.4
20260509220105 71 208 3.0 7.0 0.00 0.13 0.12 57 1008.5
20260509215604 71 276 3.0 6.0 0.00 0.13 0.12 57 1008.5
20260509215104 71 309 2.0 6.0 0.00 0.13 0.12 58 1008.5
20260509214605 71 338 2.0 7.0 0.00 0.13 0.12 58 1008.5
20260509214104 71 186 2.0 6.0 0.00 0.13 0.12 58 1008.6
20260509213604 71 208 1.0 6.0 0.00 0.13 0.12 59 1008.7
20260509213104 71 217 4.0 7.0 0.00 0.13 0.12 59 1008.7
20260509212604 71 218 2.0 7.0 0.00 0.13 0.12 59 1008.6
20260509211605 71 196 2.0 5.0 0.00 0.13 0.12 59 1008.6
20260509211105 71 207 2.0 7.0 0.00 0.13 0.12 59 1008.7
20260509210604 71 195 1.0 3.0 0.00 0.13 0.12 60 1008.7
20260509210105 71 213 2.0 7.0 0.00 0.13 0.12 59 1008.8
20260509205105 71 209 3.0 7.0 0.00 0.13 0.12 59 1008.7
20260509204604 70 192 2.0 7.0 0.00 0.13 0.12 60 1008.8
20260509204105 70 50 1.0 5.0 0.00 0.13 0.12 60 1008.8
20260509203605 70 202 3.0 7.0 0.00 0.13 0.12 60 1008.8
20260509203104 70 211 2.0 5.0 0.00 0.13 0.12 62 1009.0
20260509202604 70 212 3.0 7.0 0.00 0.13 0.12 61 1008.8
20260509202104 70 210 1.0 5.0 0.00 0.13 0.12 61 1009.0
20260509201605 70 210 3.0 9.0 0.00 0.13 0.12 59 1009.1
20260509201105 70 206 2.0 7.0 0.00 0.13 0.12 63 1009.1
20260509200604 70 212 2.0 8.0 0.00 0.13 0.12 62 1009.1
20260509200105 70 175 1.0 8.0 0.00 0.13 0.12 63 1009.2
20260509195605 69 202 2.0 7.0 0.00 0.13 0.12 63 1009.3
20260509195104 69 221 3.0 10.0 0.00 0.13 0.12 62 1009.3
20260509194606 69 223 3.0 5.0 0.00 0.13 0.12 64 1009.4
20260509194105 69 211 1.0 6.0 0.00 0.13 0.12 65 1009.4
20260509193605 69 209 2.0 7.0 0.00 0.13 0.12 66 1009.5
20260509193104 69 173 1.0 6.0 0.00 0.13 0.12 65 1009.6
20260509192604 69 182 3.0 7.0 0.00 0.13 0.12 65 1009.7
20260509192104 69 212 2.0 8.0 0.00 0.13 0.12 65 1009.7
20260509191604 69 201 2.0 5.0 0.00 0.13 0.12 66 1009.9
20260509191104 69 140 2.0 6.0 0.00 0.13 0.12 66 1009.8
20260509190104 69 103 1.0 3.0 0.00 0.13 0.12 68 1009.9
20260509185604 68 205 2.0 6.0 0.00 0.13 0.12 68 1009.8
20260509184605 68 201 2.0 7.0 0.00 0.13 0.12 68 1009.9
20260509184105 68 225 2.0 5.0 0.00 0.13 0.12 67 1009.9
20260509183604 68 189 2.0 8.0 0.00 0.13 0.12 69 1010.0
20260509183105 67 209 2.0 6.0 0.00 0.13 0.12 70 1010.2
20260509182105 67 134 1.0 5.0 0.00 0.13 0.12 70 1010.2
20260509181604 66 231 1.0 9.0 0.00 0.13 0.12 71 1010.2
20260509181104 66 18 2.0 5.0 0.00 0.13 0.12 72 1010.3
20260509180605 66 221 2.0 7.0 0.00 0.13 0.12 72 1010.3
20260509180104 66 182 3.0 7.0 0.00 0.13 0.12 71 1010.4
20260509175605 65 199 2.0 5.0 0.00 0.13 0.12 70 1010.5
20260509175105 65 199 2.0 7.0 0.00 0.13 0.12 72 1010.4